Weather History for Ocala, FL

Change the Weather History Date:

Friday, January 25, 2013

  Actual Average Record
Temperature  
Mean Temperature 60 °F -  
Max Temperature 75 °F 67 °F 80 °F (2002)
Min Temperature 44 °F 42 °F 21 °F (2003)
Degree Days  
Heating Degree Days 6    
Growing Degree Days 10 (Base 50)    
Moisture  
Dew Point 43 °F    
Average Humidity 69    
Maximum Humidity 100    
Minimum Humidity 31    
Precipitation  
Precipitation 0.00 in - - ()
Sea Level Pressure  
Sea Level Pressure 30.27 in    
Wind  
Wind Speed 2 mph (SW)    
Max Wind Speed 9 mph    
Max Gust Speed 21 mph    
Visibility 5 miles    
Events Fog    
Averages and records for this station are not official NWS values.
T = Trace of Precipitation, MM = Missing Value Source: NWS Daily Summary

Daily Weather History Graph

Daily Weather History Graph

Search for Another Location

Airport:

Trip Planner

Search our weather history database for the weather conditions in past years. The results will help you decide how hot, cold, wet, or windy it might be!

Date:

Astronomy

Jan. 25, 2013 Rise Set
Actual Time 7:21 AM EST 6:01 PM EST
Civil Twilight 6:55 AM EST 6:26 PM EST
Nautical Twilight 6:27 AM EST 6:55 PM EST
Astronomical Twilight 5:59 AM EST 7:23 PM EST
Moon 4:57 PM EST (1/25) 5:59 AM EST (1/25)
Length of Visible Light 11h 31m
Length of Day
10h 40m
Waxing Gibbous, 98% of the Moon is Illuminated
Jan 25
Waxing Gibbous
Jan 26
Full
Feb 3
Last Quarter
Feb 10
New
Feb 17
First Quarter

Hourly Weather History & Observations

Time (EST) Temp. Windchill Dew Point Humidity Pressure Visibility Wind Dir Wind Speed Gust Speed Precip Events Conditions
12:15 AM 53.6 °F - 46.4 °F 77% 30.30 in 7.0 mi Calm Calm - N/A   Overcast
12:35 AM 51.8 °F - 44.6 °F 76% 30.30 in 0.2 mi SSW 3.5 mph - N/A   Overcast
12:55 AM 51.8 °F - 46.4 °F 82% 30.30 in 0.2 mi SSW 5.8 mph - N/A   Overcast
1:15 AM 51.8 °F - 44.6 °F 76% 30.30 in 0.2 mi SSW 3.5 mph - N/A   Overcast
1:35 AM 51.8 °F - 44.6 °F 76% 30.30 in 0.2 mi South 4.6 mph - N/A   Overcast
1:55 AM 51.8 °F - 44.6 °F 76% 30.30 in 0.5 mi Calm Calm - N/A   Overcast
2:15 AM 48.2 °F - 42.8 °F 82% 30.29 in 0.2 mi Calm Calm - N/A   Overcast
2:35 AM 48.2 °F - 42.8 °F 82% 30.29 in 0.2 mi Calm Calm - N/A   Overcast
2:55 AM 48.2 °F - 42.8 °F 82% 30.29 in 0.2 mi Calm Calm - N/A   Overcast
3:15 AM 48.2 °F - 42.8 °F 82% 30.29 in 0.2 mi Calm Calm - N/A   Mostly Cloudy
3:35 AM 46.4 °F - 39.2 °F 76% 30.28 in 0.5 mi Calm Calm - N/A   Overcast
3:55 AM 46.4 °F - 41.0 °F 81% 30.29 in 0.2 mi Calm Calm - N/A   Overcast
4:15 AM 46.4 °F - 41.0 °F 81% 30.29 in 0.2 mi Calm Calm - N/A   Overcast
4:35 AM 46.4 °F - 41.0 °F 81% 30.29 in 0.2 mi Calm Calm - N/A   Overcast
4:55 AM 46.4 °F - 39.2 °F 76% 30.29 in 0.2 mi Calm Calm - N/A   Overcast
5:15 AM 44.6 °F - 39.2 °F 81% 30.29 in 0.5 mi Calm Calm - N/A   Unknown
5:35 AM 44.6 °F - 37.4 °F 76% 30.29 in 0.5 mi Calm Calm - N/A   Unknown
5:55 AM 44.6 °F - 37.4 °F 76% 30.30 in 2.5 mi Calm Calm - N/A   Clear
6:15 AM 44.6 °F - 37.4 °F 76% 30.30 in 1.8 mi Calm Calm - N/A   Clear
6:35 AM 44.6 °F - 39.2 °F 81% 30.31 in 5.0 mi Calm Calm - N/A   Clear
6:50 AM 48.2 °F - 46.4 °F 93% 30.31 in 3.0 mi Calm Calm - N/A   Partly Cloudy
7:27 AM 46.4 °F - 46.4 °F 100% 30.31 in 0.5 mi Calm Calm - N/A Fog Fog
7:50 AM 46.4 °F - 44.6 °F 93% 30.32 in 1.0 mi Calm Calm - N/A   Scattered Clouds
8:32 AM 53.6 °F - 51.8 °F 94% 30.33 in 3.0 mi Calm Calm - N/A   Scattered Clouds
8:50 AM 55.4 °F - 51.8 °F 88% 30.32 in 4.0 mi ENE 3.5 mph - N/A   Scattered Clouds
9:50 AM 59.0 °F - 53.6 °F 82% 30.33 in 7.0 mi NE 4.6 mph - N/A   Partly Cloudy
10:50 AM 66.2 °F - 53.6 °F 64% 30.33 in 7.0 mi North 3.5 mph - N/A   Clear
11:50 AM 69.8 °F - 50.0 °F 49% 30.31 in 10.0 mi West 4.6 mph - N/A   Partly Cloudy
12:50 PM 73.4 °F - 44.6 °F 36% 30.27 in 10.0 mi ESE 4.6 mph - N/A   Partly Cloudy
1:50 PM 73.4 °F - 46.4 °F 38% 30.23 in 10.0 mi West 6.9 mph - N/A   Partly Cloudy
2:50 PM 75.2 °F - 42.8 °F 31% 30.20 in 10.0 mi SSW 9.2 mph 19.6 mph N/A   Partly Cloudy
3:50 PM 73.4 °F - 42.8 °F 33% 30.19 in 10.0 mi SW 9.2 mph 20.7 mph N/A   Partly Cloudy
4:50 PM 73.4 °F - 42.8 °F 33% 30.19 in 10.0 mi WSW 5.8 mph - N/A   Partly Cloudy
5:50 PM 68.0 °F - 42.8 °F 40% 30.20 in 10.0 mi WSW 9.2 mph - N/A   Clear
6:50 PM 62.6 °F - 39.2 °F 42% 30.23 in 10.0 mi West 4.6 mph - N/A   Clear
7:55 PM 57.2 °F - 37.4 °F 48% 30.22 in 10.0 mi SW 4.6 mph - N/A   Clear
8:15 PM 57.2 °F - 39.2 °F 51% 30.21 in 10.0 mi SW 4.6 mph - N/A   Clear
8:35 PM 57.2 °F - 39.2 °F 51% 30.22 in 10.0 mi West 3.5 mph - N/A   Clear
8:55 PM 55.4 °F - 39.2 °F 54% 30.22 in 10.0 mi SW 3.5 mph - N/A   Clear
9:15 PM 53.6 °F - 39.2 °F 58% 30.22 in 10.0 mi Calm Calm - N/A   Clear
9:35 PM 53.6 °F - 41.0 °F 62% 30.22 in 10.0 mi Calm Calm - N/A   Clear
9:55 PM 53.6 °F - 41.0 °F 62% 30.22 in 10.0 mi WSW 3.5 mph - N/A   Clear
10:15 PM 51.8 °F - 39.2 °F 62% 30.23 in 10.0 mi Calm Calm - N/A   Clear
10:35 PM 48.2 °F - 39.2 °F 71% 30.24 in 10.0 mi Calm Calm - N/A   Clear
10:55 PM 48.2 °F - 39.2 °F 71% 30.24 in 10.0 mi Calm Calm - N/A   Clear
11:15 PM 46.4 °F - 37.4 °F 71% 30.25 in 10.0 mi Calm Calm - N/A   Clear
11:35 PM 46.4 °F - 37.4 °F 71% 30.24 in 5.0 mi Calm Calm - N/A   Clear
11:55 PM 46.4 °F 45.2 °F 37.4 °F 71% 30.24 in 5.0 mi SSW 3.5 mph - N/A   Clear